Home   Weather   Yellowknife   Past weeks

Flag for Canada Past Weather in Yellowknife, Northwest Territories, Canada — Yesterday and Last 2 Weeks

Now
45 °F

Drizzle. Mostly cloudy.


Feels Like: 38 °F
Forecast: 39 / 49 °F
Wind: 14 mph from West

Location: Yellowknife

Current Time: Sep 27, 2016 at 2:47:00 PM

Latest Report: Sep 27, 2016 at 2:00 PM


Visibility: 8 mi

Pressure: 29.46 "Hg

Humidity: 93%

Dew Point: 43 °F

Location of YellowknifeLocation

Past Weather in Yellowknife — Graph

°F

Yellowknife Temperature Yesterday

Maximum temperature yesterday: 50 °F (at 1:00 PM)
Minimum temperature yesterday: 43 °F (at 3:00 AM)
Average temperature yesterday: 47 °F

High & Low Weather Summary for the Past Weeks

 TemperatureHumidityPressure
High63 °F (Sep 17, 4:00 PM)100% (Sep 13, 6:00 AM)30.21 "Hg (Sep 13, 6:00 AM)
Low30 °F (Sep 15, 7:00 AM)40% (Sep 20, 6:00 PM)29.32 "Hg (Sep 17, 5:00 PM)
Average46 °F81%29.77 "Hg
* Reported Sep 12 1:00 PM — Sep 27 1:00 PM, Yellowknife, Weather by CustomWeather, © 2016

Note: Actual official high and low records may vary slightly from our data, if they occured in-between our weather recording intervals... More about our weather records

Advertising

Yellowknife Weather History for the Previous 24 Hours

Scroll right to see more
 ConditionsComfort  
Time TempWeatherWind HumidityBarometerVisibility
1:00 PM
Tue, Sep 27
45 °FDrizzle. Low clouds.14 mph100%29.46 "Hg4 mi
12:00 PM46 °FDrizzle. Mostly cloudy.14 mph93%29.46 "Hg15 mi
11:00 AM46 °FMostly cloudy.8 mph93%29.44 "Hg15 mi
10:00 AM46 °FLight rain. Mostly cloudy.14 mph87%29.43 "Hg15 mi
9:00 AM46 °FLight rain. Mostly cloudy.13 mph93%29.41 "Hg15 mi
8:00 AM48 °FLight rain. Mostly cloudy.5 mph94%29.39 "Hg12 mi
7:53 AM48 °FLight rain. Mostly cloudy.3 mph94%29.39 "Hg12 mi
7:00 AM46 °FLight rain. Mostly cloudy.6 mph100%29.41 "Hg15 mi
6:56 AM46 °FLight rain. Mostly cloudy.6 mph100%29.41 "Hg15 mi
6:00 AM46 °FLight rain. Partly cloudy.8 mph93%29.41 "Hg15 mi
5:00 AM48 °FLight rain. Partly cloudy.8 mph82%29.44 "Hg15 mi
4:00 AM48 °FLight rain. Passing clouds.12 mph71%29.46 "Hg15 mi
3:00 AM48 °FLight rain. Mostly cloudy.16 mph71%29.48 "Hg15 mi
2:00 AM48 °FLight rain. Mostly cloudy.7 mph71%29.54 "Hg15 mi
1:00 AM48 °FLight rain. Mostly cloudy.15 mph71%29.55 "Hg15 mi
12:00 AM48 °FLight rain. Passing clouds.17 mph71%29.58 "Hg15 mi
11:00 PM
Mon, Sep 26
48 °FMostly cloudy.17 mph66%29.62 "Hg15 mi
10:00 PM48 °FLight rain. Overcast.17 mph66%29.66 "Hg15 mi
9:00 PM48 °FLight rain. Mostly cloudy.18 mph66%29.69 "Hg15 mi
8:00 PM48 °FLight rain. Overcast.16 mph66%29.73 "Hg15 mi
7:00 PM48 °FLight rain. Overcast.14 mph71%29.75 "Hg15 mi
6:00 PM46 °FLight rain. Mostly cloudy.13 mph76%29.77 "Hg15 mi
5:00 PM46 °FLight rain. Mostly cloudy.16 mph82%29.79 "Hg15 mi
4:00 PM48 °FMostly cloudy.17 mph71%29.79 "Hg15 mi
3:00 PM50 °FLight rain. Mostly cloudy.17 mph67%29.82 "Hg15 mi
2:48 PM50 °FLight rain. Mostly cloudy.16 mph62%29.82 "Hg15 mi
2:00 PM50 °FOvercast.16 mph62%29.84 "Hg15 mi
Weather by CustomWeather, © 2016

See weather overviewHow to use our weather pages